Index of /20260502/WXO-DD/model_rdps/10km/06/081
Name Last modified Size Description
Parent Directory -
20260502T06Z_MSC_RDPS_AbsoluteVorticity_IsbL-0250_RLatLon0.09_PT081H.grib2 2026-05-02 09:04 599K
20260502T06Z_MSC_RDPS_AbsoluteVorticity_IsbL-0500_RLatLon0.09_PT081H.grib2 2026-05-02 09:04 675K
20260502T06Z_MSC_RDPS_AbsoluteVorticity_IsbL-0700_RLatLon0.09_PT081H.grib2 2026-05-02 09:04 614K
20260502T06Z_MSC_RDPS_AbsoluteVorticity_IsbL-0850_RLatLon0.09_PT081H.grib2 2026-05-02 09:04 802K
20260502T06Z_MSC_RDPS_AirTemp_AGL-120m_RLatLon0.09_PT081H.grib2 2026-05-02 09:04 383K
20260502T06Z_MSC_RDPS_AirTemp_AGL-2m_RLatLon0.09_PT081H.grib2 2026-05-02 09:04 627K
20260502T06Z_MSC_RDPS_AirTemp_AGL-40m_RLatLon0.09_PT081H.grib2 2026-05-02 09:04 393K
20260502T06Z_MSC_RDPS_AirTemp_AGL-80m_RLatLon0.09_PT081H.grib2 2026-05-02 09:04 388K
20260502T06Z_MSC_RDPS_AirTemp_IsbL-0001_RLatLon0.09_PT081H.grib2 2026-05-02 09:04 324K
20260502T06Z_MSC_RDPS_AirTemp_IsbL-0005_RLatLon0.09_PT081H.grib2 2026-05-02 09:04 292K
20260502T06Z_MSC_RDPS_AirTemp_IsbL-0010_RLatLon0.09_PT081H.grib2 2026-05-02 09:04 394K
20260502T06Z_MSC_RDPS_AirTemp_IsbL-0020_RLatLon0.09_PT081H.grib2 2026-05-02 09:04 320K
20260502T06Z_MSC_RDPS_AirTemp_IsbL-0030_RLatLon0.09_PT081H.grib2 2026-05-02 09:04 340K
20260502T06Z_MSC_RDPS_AirTemp_IsbL-0050_RLatLon0.09_PT081H.grib2 2026-05-02 09:04 317K
20260502T06Z_MSC_RDPS_AirTemp_IsbL-0100_RLatLon0.09_PT081H.grib2 2026-05-02 09:04 430K
20260502T06Z_MSC_RDPS_AirTemp_IsbL-0150_RLatLon0.09_PT081H.grib2 2026-05-02 09:04 415K
20260502T06Z_MSC_RDPS_AirTemp_IsbL-0175_RLatLon0.09_PT081H.grib2 2026-05-02 09:04 409K
20260502T06Z_MSC_RDPS_AirTemp_IsbL-0200_RLatLon0.09_PT081H.grib2 2026-05-02 09:04 413K
20260502T06Z_MSC_RDPS_AirTemp_IsbL-0225_RLatLon0.09_PT081H.grib2 2026-05-02 09:04 413K
20260502T06Z_MSC_RDPS_AirTemp_IsbL-0250_RLatLon0.09_PT081H.grib2 2026-05-02 09:04 418K
20260502T06Z_MSC_RDPS_AirTemp_IsbL-0275_RLatLon0.09_PT081H.grib2 2026-05-02 09:04 401K
20260502T06Z_MSC_RDPS_AirTemp_IsbL-0300_RLatLon0.09_PT081H.grib2 2026-05-02 09:04 408K
20260502T06Z_MSC_RDPS_AirTemp_IsbL-0350_RLatLon0.09_PT081H.grib2 2026-05-02 09:04 425K
20260502T06Z_MSC_RDPS_AirTemp_IsbL-0400_RLatLon0.09_PT081H.grib2 2026-05-02 09:04 429K
20260502T06Z_MSC_RDPS_AirTemp_IsbL-0450_RLatLon0.09_PT081H.grib2 2026-05-02 09:04 436K
20260502T06Z_MSC_RDPS_AirTemp_IsbL-0500_RLatLon0.09_PT081H.grib2 2026-05-02 09:04 445K
20260502T06Z_MSC_RDPS_AirTemp_IsbL-0550_RLatLon0.09_PT081H.grib2 2026-05-02 09:04 461K
20260502T06Z_MSC_RDPS_AirTemp_IsbL-0600_RLatLon0.09_PT081H.grib2 2026-05-02 09:04 442K
20260502T06Z_MSC_RDPS_AirTemp_IsbL-0650_RLatLon0.09_PT081H.grib2 2026-05-02 09:04 457K
20260502T06Z_MSC_RDPS_AirTemp_IsbL-0700_RLatLon0.09_PT081H.grib2 2026-05-02 09:04 485K
20260502T06Z_MSC_RDPS_AirTemp_IsbL-0750_RLatLon0.09_PT081H.grib2 2026-05-02 09:04 525K
20260502T06Z_MSC_RDPS_AirTemp_IsbL-0800_RLatLon0.09_PT081H.grib2 2026-05-02 09:04 583K
20260502T06Z_MSC_RDPS_AirTemp_IsbL-0850_RLatLon0.09_PT081H.grib2 2026-05-02 09:04 648K
20260502T06Z_MSC_RDPS_AirTemp_IsbL-0875_RLatLon0.09_PT081H.grib2 2026-05-02 09:04 667K
20260502T06Z_MSC_RDPS_AirTemp_IsbL-0900_RLatLon0.09_PT081H.grib2 2026-05-02 09:04 676K
20260502T06Z_MSC_RDPS_AirTemp_IsbL-0925_RLatLon0.09_PT081H.grib2 2026-05-02 09:04 671K
20260502T06Z_MSC_RDPS_AirTemp_IsbL-0950_RLatLon0.09_PT081H.grib2 2026-05-02 09:04 534K
20260502T06Z_MSC_RDPS_AirTemp_IsbL-0970_RLatLon0.09_PT081H.grib2 2026-05-02 09:04 528K
20260502T06Z_MSC_RDPS_AirTemp_IsbL-0985_RLatLon0.09_PT081H.grib2 2026-05-02 09:04 515K
20260502T06Z_MSC_RDPS_AirTemp_IsbL-1000_RLatLon0.09_PT081H.grib2 2026-05-02 09:04 501K
20260502T06Z_MSC_RDPS_AirTemp_IsbL-1015_RLatLon0.09_PT081H.grib2 2026-05-02 09:04 508K
20260502T06Z_MSC_RDPS_Albedo_Sfc_RLatLon0.09_PT081H.grib2 2026-05-02 09:04 159K
20260502T06Z_MSC_RDPS_CAPE_Sfc_RLatLon0.09_PT081H.grib2 2026-05-02 09:04 1.8M
20260502T06Z_MSC_RDPS_CIN_Sfc_RLatLon0.09_PT081H.grib2 2026-05-02 09:04 1.2M
20260502T06Z_MSC_RDPS_CloudWater_EAtm_RLatLon0.09_PT081H.grib2 2026-05-02 09:04 222K
20260502T06Z_MSC_RDPS_ConvectivePrecip-Accum_Sfc_RLatLon0.09_PT081H.grib2 2026-05-02 09:04 1.3M
20260502T06Z_MSC_RDPS_DewPointDepression_AGL-2m_RLatLon0.09_PT081H.grib2 2026-05-02 09:04 420K
20260502T06Z_MSC_RDPS_DewPointDepression_IsbL-0001_RLatLon0.09_PT081H.grib2 2026-05-02 09:04 193
20260502T06Z_MSC_RDPS_DewPointDepression_IsbL-0005_RLatLon0.09_PT081H.grib2 2026-05-02 09:04 193
20260502T06Z_MSC_RDPS_DewPointDepression_IsbL-0010_RLatLon0.09_PT081H.grib2 2026-05-02 09:04 193
20260502T06Z_MSC_RDPS_DewPointDepression_IsbL-0020_RLatLon0.09_PT081H.grib2 2026-05-02 09:04 193
20260502T06Z_MSC_RDPS_DewPointDepression_IsbL-0030_RLatLon0.09_PT081H.grib2 2026-05-02 09:04 193
20260502T06Z_MSC_RDPS_DewPointDepression_IsbL-0050_RLatLon0.09_PT081H.grib2 2026-05-02 09:04 106K
20260502T06Z_MSC_RDPS_DewPointDepression_IsbL-0100_RLatLon0.09_PT081H.grib2 2026-05-02 09:04 115K
20260502T06Z_MSC_RDPS_DewPointDepression_IsbL-0150_RLatLon0.09_PT081H.grib2 2026-05-02 09:04 138K
20260502T06Z_MSC_RDPS_DewPointDepression_IsbL-0175_RLatLon0.09_PT081H.grib2 2026-05-02 09:04 177K
20260502T06Z_MSC_RDPS_DewPointDepression_IsbL-0200_RLatLon0.09_PT081H.grib2 2026-05-02 09:04 215K
20260502T06Z_MSC_RDPS_DewPointDepression_IsbL-0225_RLatLon0.09_PT081H.grib2 2026-05-02 09:04 251K
20260502T06Z_MSC_RDPS_DewPointDepression_IsbL-0250_RLatLon0.09_PT081H.grib2 2026-05-02 09:04 292K
20260502T06Z_MSC_RDPS_DewPointDepression_IsbL-0275_RLatLon0.09_PT081H.grib2 2026-05-02 09:04 300K
20260502T06Z_MSC_RDPS_DewPointDepression_IsbL-0300_RLatLon0.09_PT081H.grib2 2026-05-02 09:04 320K
20260502T06Z_MSC_RDPS_DewPointDepression_IsbL-0350_RLatLon0.09_PT081H.grib2 2026-05-02 09:04 323K
20260502T06Z_MSC_RDPS_DewPointDepression_IsbL-0400_RLatLon0.09_PT081H.grib2 2026-05-02 09:04 334K
20260502T06Z_MSC_RDPS_DewPointDepression_IsbL-0450_RLatLon0.09_PT081H.grib2 2026-05-02 09:04 338K
20260502T06Z_MSC_RDPS_DewPointDepression_IsbL-0500_RLatLon0.09_PT081H.grib2 2026-05-02 09:04 341K
20260502T06Z_MSC_RDPS_DewPointDepression_IsbL-0550_RLatLon0.09_PT081H.grib2 2026-05-02 09:04 351K
20260502T06Z_MSC_RDPS_DewPointDepression_IsbL-0600_RLatLon0.09_PT081H.grib2 2026-05-02 09:04 363K
20260502T06Z_MSC_RDPS_DewPointDepression_IsbL-0650_RLatLon0.09_PT081H.grib2 2026-05-02 09:04 370K
20260502T06Z_MSC_RDPS_DewPointDepression_IsbL-0700_RLatLon0.09_PT081H.grib2 2026-05-02 09:04 382K
20260502T06Z_MSC_RDPS_DewPointDepression_IsbL-0750_RLatLon0.09_PT081H.grib2 2026-05-02 09:04 403K
20260502T06Z_MSC_RDPS_DewPointDepression_IsbL-0800_RLatLon0.09_PT081H.grib2 2026-05-02 09:04 442K
20260502T06Z_MSC_RDPS_DewPointDepression_IsbL-0850_RLatLon0.09_PT081H.grib2 2026-05-02 09:04 479K
20260502T06Z_MSC_RDPS_DewPointDepression_IsbL-0875_RLatLon0.09_PT081H.grib2 2026-05-02 09:04 478K
20260502T06Z_MSC_RDPS_DewPointDepression_IsbL-0900_RLatLon0.09_PT081H.grib2 2026-05-02 09:04 468K
20260502T06Z_MSC_RDPS_DewPointDepression_IsbL-0925_RLatLon0.09_PT081H.grib2 2026-05-02 09:04 455K
20260502T06Z_MSC_RDPS_DewPointDepression_IsbL-0950_RLatLon0.09_PT081H.grib2 2026-05-02 09:04 449K
20260502T06Z_MSC_RDPS_DewPointDepression_IsbL-0970_RLatLon0.09_PT081H.grib2 2026-05-02 09:04 446K
20260502T06Z_MSC_RDPS_DewPointDepression_IsbL-0985_RLatLon0.09_PT081H.grib2 2026-05-02 09:04 444K
20260502T06Z_MSC_RDPS_DewPointDepression_IsbL-1000_RLatLon0.09_PT081H.grib2 2026-05-02 09:04 439K
20260502T06Z_MSC_RDPS_DewPointDepression_IsbL-1015_RLatLon0.09_PT081H.grib2 2026-05-02 09:04 432K
20260502T06Z_MSC_RDPS_DewPoint_AGL-2m_RLatLon0.09_PT081H.grib2 2026-05-02 09:04 401K
20260502T06Z_MSC_RDPS_DownwardLongwaveRadiationFlux-Accum_Sfc_RLatLon0.09_PT081H.grib2 2026-05-02 09:04 440K
20260502T06Z_MSC_RDPS_DownwardShortwaveRadiationFlux-Accum_NTAtm_RLatLon0.09_PT081H.grib2 2026-05-02 09:04 113K
20260502T06Z_MSC_RDPS_DownwardShortwaveRadiationFlux-Accum_Sfc_RLatLon0.09_PT081H.grib2 2026-05-02 09:04 640K
20260502T06Z_MSC_RDPS_FreezingRain-Accum1h_Sfc_RLatLon0.09_PT081H.grib2 2026-05-02 09:04 44K
20260502T06Z_MSC_RDPS_FreezingRain-Accum3h_Sfc_RLatLon0.09_PT081H.grib2 2026-05-02 09:04 53K
20260502T06Z_MSC_RDPS_FreezingRain-Accum_Sfc_RLatLon0.09_PT081H.grib2 2026-05-02 09:04 223K
20260502T06Z_MSC_RDPS_GeopotentialHeight_IsbL-0001_RLatLon0.09_PT081H.grib2 2026-05-02 09:04 355K
20260502T06Z_MSC_RDPS_GeopotentialHeight_IsbL-0005_RLatLon0.09_PT081H.grib2 2026-05-02 09:04 311K
20260502T06Z_MSC_RDPS_GeopotentialHeight_IsbL-0010_RLatLon0.09_PT081H.grib2 2026-05-02 09:04 311K
20260502T06Z_MSC_RDPS_GeopotentialHeight_IsbL-0020_RLatLon0.09_PT081H.grib2 2026-05-02 09:04 311K
20260502T06Z_MSC_RDPS_GeopotentialHeight_IsbL-0030_RLatLon0.09_PT081H.grib2 2026-05-02 09:04 412K
20260502T06Z_MSC_RDPS_GeopotentialHeight_IsbL-0050_RLatLon0.09_PT081H.grib2 2026-05-02 09:04 313K
20260502T06Z_MSC_RDPS_GeopotentialHeight_IsbL-0100_RLatLon0.09_PT081H.grib2 2026-05-02 09:04 287K
20260502T06Z_MSC_RDPS_GeopotentialHeight_IsbL-0150_RLatLon0.09_PT081H.grib2 2026-05-02 09:04 230K
20260502T06Z_MSC_RDPS_GeopotentialHeight_IsbL-0175_RLatLon0.09_PT081H.grib2 2026-05-02 09:04 232K
20260502T06Z_MSC_RDPS_GeopotentialHeight_IsbL-0200_RLatLon0.09_PT081H.grib2 2026-05-02 09:04 236K
20260502T06Z_MSC_RDPS_GeopotentialHeight_IsbL-0225_RLatLon0.09_PT081H.grib2 2026-05-02 09:04 237K
20260502T06Z_MSC_RDPS_GeopotentialHeight_IsbL-0250_RLatLon0.09_PT081H.grib2 2026-05-02 09:04 237K
20260502T06Z_MSC_RDPS_GeopotentialHeight_IsbL-0275_RLatLon0.09_PT081H.grib2 2026-05-02 09:04 236K
20260502T06Z_MSC_RDPS_GeopotentialHeight_IsbL-0300_RLatLon0.09_PT081H.grib2 2026-05-02 09:04 236K
20260502T06Z_MSC_RDPS_GeopotentialHeight_IsbL-0350_RLatLon0.09_PT081H.grib2 2026-05-02 09:04 232K
20260502T06Z_MSC_RDPS_GeopotentialHeight_IsbL-0400_RLatLon0.09_PT081H.grib2 2026-05-02 09:04 304K
20260502T06Z_MSC_RDPS_GeopotentialHeight_IsbL-0450_RLatLon0.09_PT081H.grib2 2026-05-02 09:04 299K
20260502T06Z_MSC_RDPS_GeopotentialHeight_IsbL-0500_RLatLon0.09_PT081H.grib2 2026-05-02 09:04 295K
20260502T06Z_MSC_RDPS_GeopotentialHeight_IsbL-0550_RLatLon0.09_PT081H.grib2 2026-05-02 09:04 292K
20260502T06Z_MSC_RDPS_GeopotentialHeight_IsbL-0600_RLatLon0.09_PT081H.grib2 2026-05-02 09:04 261K
20260502T06Z_MSC_RDPS_GeopotentialHeight_IsbL-0650_RLatLon0.09_PT081H.grib2 2026-05-02 09:04 259K
20260502T06Z_MSC_RDPS_GeopotentialHeight_IsbL-0700_RLatLon0.09_PT081H.grib2 2026-05-02 09:04 258K
20260502T06Z_MSC_RDPS_GeopotentialHeight_IsbL-0750_RLatLon0.09_PT081H.grib2 2026-05-02 09:04 345K
20260502T06Z_MSC_RDPS_GeopotentialHeight_IsbL-0800_RLatLon0.09_PT081H.grib2 2026-05-02 09:04 355K
20260502T06Z_MSC_RDPS_GeopotentialHeight_IsbL-0850_RLatLon0.09_PT081H.grib2 2026-05-02 09:04 367K
20260502T06Z_MSC_RDPS_GeopotentialHeight_IsbL-0875_RLatLon0.09_PT081H.grib2 2026-05-02 09:04 370K
20260502T06Z_MSC_RDPS_GeopotentialHeight_IsbL-0900_RLatLon0.09_PT081H.grib2 2026-05-02 09:04 372K
20260502T06Z_MSC_RDPS_GeopotentialHeight_IsbL-0925_RLatLon0.09_PT081H.grib2 2026-05-02 09:04 285K
20260502T06Z_MSC_RDPS_GeopotentialHeight_IsbL-0950_RLatLon0.09_PT081H.grib2 2026-05-02 09:04 287K
20260502T06Z_MSC_RDPS_GeopotentialHeight_IsbL-0970_RLatLon0.09_PT081H.grib2 2026-05-02 09:04 292K
20260502T06Z_MSC_RDPS_GeopotentialHeight_IsbL-0985_RLatLon0.09_PT081H.grib2 2026-05-02 09:04 298K
20260502T06Z_MSC_RDPS_GeopotentialHeight_IsbL-1000_RLatLon0.09_PT081H.grib2 2026-05-02 09:04 308K
20260502T06Z_MSC_RDPS_GeopotentialHeight_IsbL-1015_RLatLon0.09_PT081H.grib2 2026-05-02 09:04 320K
20260502T06Z_MSC_RDPS_Humidex_Sfc_RLatLon0.09_PT081H.grib2 2026-05-02 09:04 2.4M
20260502T06Z_MSC_RDPS_IcePellets-Accum1h_Sfc_RLatLon0.09_PT081H.grib2 2026-05-02 09:04 12K
20260502T06Z_MSC_RDPS_IcePellets-Accum3h_Sfc_RLatLon0.09_PT081H.grib2 2026-05-02 09:04 14K
20260502T06Z_MSC_RDPS_IcePellets-Accum_Sfc_RLatLon0.09_PT081H.grib2 2026-05-02 09:04 43K
20260502T06Z_MSC_RDPS_KIndex_Sfc_RLatLon0.09_PT081H.grib2 2026-05-02 09:04 2.5M
20260502T06Z_MSC_RDPS_LatentHeatNetFlux_Sfc_RLatLon0.09_PT081H.grib2 2026-05-02 09:04 393K
20260502T06Z_MSC_RDPS_LiftedIndex-MU-VT_IsbL-0500_RLatLon0.09_PT081H.grib2 2026-05-02 09:04 2.4M
20260502T06Z_MSC_RDPS_NetLongwaveRadiationFlux-Accum_Sfc_RLatLon0.09_PT081H.grib2 2026-05-02 09:04 492K
20260502T06Z_MSC_RDPS_NetShortwaveRadiationFlux-Accum_Sfc_RLatLon0.09_PT081H.grib2 2026-05-02 09:04 641K
20260502T06Z_MSC_RDPS_PlanetaryBoundaryLayerHeight_Sfc_RLatLon0.09_PT081H.grib2 2026-05-02 09:04 1.2M
20260502T06Z_MSC_RDPS_Precip-Accum1h_Sfc_RLatLon0.09_PT081H.grib2 2026-05-02 09:04 1.4M
20260502T06Z_MSC_RDPS_Precip-Accum3h_Sfc_RLatLon0.09_PT081H.grib2 2026-05-02 09:04 1.5M
20260502T06Z_MSC_RDPS_Precip-Accum_Sfc_RLatLon0.09_PT081H.grib2 2026-05-02 09:04 2.3M
20260502T06Z_MSC_RDPS_PrecipRate_Sfc_RLatLon0.09_PT081H.grib2 2026-05-02 09:04 254K
20260502T06Z_MSC_RDPS_PrecipType-Instant_Sfc_RLatLon0.09_PT081H.grib2 2026-05-02 09:04 606K
20260502T06Z_MSC_RDPS_Pressure-Trend3h_Sfc_RLatLon0.09_PT081H.grib2 2026-05-02 09:04 1.2M
20260502T06Z_MSC_RDPS_Pressure_MSL_RLatLon0.09_PT081H.grib2 2026-05-02 09:04 332K
20260502T06Z_MSC_RDPS_Pressure_PVU-1.5_RLatLon0.09_PT081H.grib2 2026-05-02 09:04 2.5M
20260502T06Z_MSC_RDPS_Pressure_PVU-1_RLatLon0.09_PT081H.grib2 2026-05-02 09:04 2.4M
20260502T06Z_MSC_RDPS_Pressure_PVU-2_RLatLon0.09_PT081H.grib2 2026-05-02 09:04 2.4M
20260502T06Z_MSC_RDPS_Pressure_Sfc_RLatLon0.09_PT081H.grib2 2026-05-02 09:04 500K
20260502T06Z_MSC_RDPS_RadiativeTemp_Sfc_RLatLon0.09_PT081H.grib2 2026-05-02 09:04 311K
20260502T06Z_MSC_RDPS_Rain-Accum1h_Sfc_RLatLon0.09_PT081H.grib2 2026-05-02 09:04 753K
20260502T06Z_MSC_RDPS_Rain-Accum3h_Sfc_RLatLon0.09_PT081H.grib2 2026-05-02 09:04 788K
20260502T06Z_MSC_RDPS_Rain-Accum_Sfc_RLatLon0.09_PT081H.grib2 2026-05-02 09:04 1.9M
20260502T06Z_MSC_RDPS_RelativeHumidity_AGL-2m_RLatLon0.09_PT081H.grib2 2026-05-02 09:04 1.0M
20260502T06Z_MSC_RDPS_RelativeHumidity_IsbL-0010_RLatLon0.09_PT081H.grib2 2026-05-02 09:04 687K
20260502T06Z_MSC_RDPS_RelativeHumidity_IsbL-0020_RLatLon0.09_PT081H.grib2 2026-05-02 09:04 732K
20260502T06Z_MSC_RDPS_RelativeHumidity_IsbL-0030_RLatLon0.09_PT081H.grib2 2026-05-02 09:04 600K
20260502T06Z_MSC_RDPS_RelativeHumidity_IsbL-0050_RLatLon0.09_PT081H.grib2 2026-05-02 09:04 308K
20260502T06Z_MSC_RDPS_RelativeHumidity_IsbL-0100_RLatLon0.09_PT081H.grib2 2026-05-02 09:04 276K
20260502T06Z_MSC_RDPS_RelativeHumidity_IsbL-0150_RLatLon0.09_PT081H.grib2 2026-05-02 09:04 412K
20260502T06Z_MSC_RDPS_RelativeHumidity_IsbL-0175_RLatLon0.09_PT081H.grib2 2026-05-02 09:04 475K
20260502T06Z_MSC_RDPS_RelativeHumidity_IsbL-0200_RLatLon0.09_PT081H.grib2 2026-05-02 09:04 553K
20260502T06Z_MSC_RDPS_RelativeHumidity_IsbL-0225_RLatLon0.09_PT081H.grib2 2026-05-02 09:04 615K
20260502T06Z_MSC_RDPS_RelativeHumidity_IsbL-0250_RLatLon0.09_PT081H.grib2 2026-05-02 09:04 673K
20260502T06Z_MSC_RDPS_RelativeHumidity_IsbL-0275_RLatLon0.09_PT081H.grib2 2026-05-02 09:04 694K
20260502T06Z_MSC_RDPS_RelativeHumidity_IsbL-0300_RLatLon0.09_PT081H.grib2 2026-05-02 09:04 738K
20260502T06Z_MSC_RDPS_RelativeHumidity_IsbL-0350_RLatLon0.09_PT081H.grib2 2026-05-02 09:04 761K
20260502T06Z_MSC_RDPS_RelativeHumidity_IsbL-0400_RLatLon0.09_PT081H.grib2 2026-05-02 09:04 776K
20260502T06Z_MSC_RDPS_RelativeHumidity_IsbL-0450_RLatLon0.09_PT081H.grib2 2026-05-02 09:04 783K
20260502T06Z_MSC_RDPS_RelativeHumidity_IsbL-0500_RLatLon0.09_PT081H.grib2 2026-05-02 09:04 785K
20260502T06Z_MSC_RDPS_RelativeHumidity_IsbL-0550_RLatLon0.09_PT081H.grib2 2026-05-02 09:04 801K
20260502T06Z_MSC_RDPS_RelativeHumidity_IsbL-0600_RLatLon0.09_PT081H.grib2 2026-05-02 09:04 822K
20260502T06Z_MSC_RDPS_RelativeHumidity_IsbL-0650_RLatLon0.09_PT081H.grib2 2026-05-02 09:04 837K
20260502T06Z_MSC_RDPS_RelativeHumidity_IsbL-0700_RLatLon0.09_PT081H.grib2 2026-05-02 09:04 865K
20260502T06Z_MSC_RDPS_RelativeHumidity_IsbL-0750_RLatLon0.09_PT081H.grib2 2026-05-02 09:04 910K
20260502T06Z_MSC_RDPS_RelativeHumidity_IsbL-0800_RLatLon0.09_PT081H.grib2 2026-05-02 09:04 1.0M
20260502T06Z_MSC_RDPS_RelativeHumidity_IsbL-0850_RLatLon0.09_PT081H.grib2 2026-05-02 09:04 1.0M
20260502T06Z_MSC_RDPS_RelativeHumidity_IsbL-0875_RLatLon0.09_PT081H.grib2 2026-05-02 09:04 1.1M
20260502T06Z_MSC_RDPS_RelativeHumidity_IsbL-0900_RLatLon0.09_PT081H.grib2 2026-05-02 09:04 1.1M
20260502T06Z_MSC_RDPS_RelativeHumidity_IsbL-0925_RLatLon0.09_PT081H.grib2 2026-05-02 09:04 1.1M
20260502T06Z_MSC_RDPS_RelativeHumidity_IsbL-0950_RLatLon0.09_PT081H.grib2 2026-05-02 09:04 1.1M
20260502T06Z_MSC_RDPS_RelativeHumidity_IsbL-0970_RLatLon0.09_PT081H.grib2 2026-05-02 09:04 1.1M
20260502T06Z_MSC_RDPS_RelativeHumidity_IsbL-0985_RLatLon0.09_PT081H.grib2 2026-05-02 09:04 1.1M
20260502T06Z_MSC_RDPS_RelativeHumidity_IsbL-1000_RLatLon0.09_PT081H.grib2 2026-05-02 09:04 1.0M
20260502T06Z_MSC_RDPS_RelativeHumidity_IsbL-1015_RLatLon0.09_PT081H.grib2 2026-05-02 09:04 1.0M
20260502T06Z_MSC_RDPS_Runoff-Accum_Sfc_RLatLon0.09_PT081H.grib2 2026-05-02 09:04 70K
20260502T06Z_MSC_RDPS_SWEATIndex_Sfc_RLatLon0.09_PT081H.grib2 2026-05-02 09:04 2.4M
20260502T06Z_MSC_RDPS_SeeingIndex_EAtm_RLatLon0.09_PT081H.grib2 2026-05-02 09:04 1.0M
20260502T06Z_MSC_RDPS_SensibleHeatNetFlux_Sfc_RLatLon0.09_PT081H.grib2 2026-05-02 09:04 363K
20260502T06Z_MSC_RDPS_ShowalterIndex_IsbL-0500_RLatLon0.09_PT081H.grib2 2026-05-02 09:04 2.6M
20260502T06Z_MSC_RDPS_SkyTransparencyIndex_EAtm_RLatLon0.09_PT081H.grib2 2026-05-02 09:04 696K
20260502T06Z_MSC_RDPS_Snow-Accum1h_Sfc_RLatLon0.09_PT081H.grib2 2026-05-02 09:04 491K
20260502T06Z_MSC_RDPS_Snow-Accum3h_Sfc_RLatLon0.09_PT081H.grib2 2026-05-02 09:04 446K
20260502T06Z_MSC_RDPS_Snow-Accum_Sfc_RLatLon0.09_PT081H.grib2 2026-05-02 09:04 823K
20260502T06Z_MSC_RDPS_SnowDensity_Sfc_RLatLon0.09_PT081H.grib2 2026-05-02 09:04 177K
20260502T06Z_MSC_RDPS_SnowDepth_Sfc_RLatLon0.09_PT081H.grib2 2026-05-02 09:04 662K
20260502T06Z_MSC_RDPS_SoilTemp_DBS-0to10cm_RLatLon0.09_PT081H.grib2 2026-05-02 09:04 243K
20260502T06Z_MSC_RDPS_SoilTemp_Sfc_RLatLon0.09_PT081H.grib2 2026-05-02 09:04 286K
20260502T06Z_MSC_RDPS_SoilVolumetricIceContent_Sfc_RLatLon0.09_PT081H.grib2 2026-05-02 09:04 154K
20260502T06Z_MSC_RDPS_SoilVolumetricWaterContent_DBS-0to10cm_RLatLon0.09_PT081H.grib2 2026-05-02 09:04 278K
20260502T06Z_MSC_RDPS_SoilVolumetricWaterContent_DBS-0to1cm_RLatLon0.09_PT081H.grib2 2026-05-02 09:04 343K
20260502T06Z_MSC_RDPS_SpecificHumidity_AGL-120m_RLatLon0.09_PT081H.grib2 2026-05-02 09:04 504K
20260502T06Z_MSC_RDPS_SpecificHumidity_AGL-2m_RLatLon0.09_PT081H.grib2 2026-05-02 09:04 676K
20260502T06Z_MSC_RDPS_SpecificHumidity_AGL-40m_RLatLon0.09_PT081H.grib2 2026-05-02 09:04 510K
20260502T06Z_MSC_RDPS_SpecificHumidity_AGL-80m_RLatLon0.09_PT081H.grib2 2026-05-02 09:04 506K
20260502T06Z_MSC_RDPS_SpecificHumidity_IsbL-0001_RLatLon0.09_PT081H.grib2 2026-05-02 09:04 379K
20260502T06Z_MSC_RDPS_SpecificHumidity_IsbL-0005_RLatLon0.09_PT081H.grib2 2026-05-02 09:04 359K
20260502T06Z_MSC_RDPS_SpecificHumidity_IsbL-0010_RLatLon0.09_PT081H.grib2 2026-05-02 09:04 395K
20260502T06Z_MSC_RDPS_SpecificHumidity_IsbL-0020_RLatLon0.09_PT081H.grib2 2026-05-02 09:04 369K
20260502T06Z_MSC_RDPS_SpecificHumidity_IsbL-0030_RLatLon0.09_PT081H.grib2 2026-05-02 09:04 471K
20260502T06Z_MSC_RDPS_SpecificHumidity_IsbL-0050_RLatLon0.09_PT081H.grib2 2026-05-02 09:04 439K
20260502T06Z_MSC_RDPS_SpecificHumidity_IsbL-0100_RLatLon0.09_PT081H.grib2 2026-05-02 09:04 524K
20260502T06Z_MSC_RDPS_SpecificHumidity_IsbL-0150_RLatLon0.09_PT081H.grib2 2026-05-02 09:04 445K
20260502T06Z_MSC_RDPS_SpecificHumidity_IsbL-0175_RLatLon0.09_PT081H.grib2 2026-05-02 09:04 436K
20260502T06Z_MSC_RDPS_SpecificHumidity_IsbL-0200_RLatLon0.09_PT081H.grib2 2026-05-02 09:04 455K
20260502T06Z_MSC_RDPS_SpecificHumidity_IsbL-0225_RLatLon0.09_PT081H.grib2 2026-05-02 09:04 454K
20260502T06Z_MSC_RDPS_SpecificHumidity_IsbL-0250_RLatLon0.09_PT081H.grib2 2026-05-02 09:04 553K
20260502T06Z_MSC_RDPS_SpecificHumidity_IsbL-0275_RLatLon0.09_PT081H.grib2 2026-05-02 09:04 467K
20260502T06Z_MSC_RDPS_SpecificHumidity_IsbL-0300_RLatLon0.09_PT081H.grib2 2026-05-02 09:04 539K
20260502T06Z_MSC_RDPS_SpecificHumidity_IsbL-0350_RLatLon0.09_PT081H.grib2 2026-05-02 09:04 534K
20260502T06Z_MSC_RDPS_SpecificHumidity_IsbL-0400_RLatLon0.09_PT081H.grib2 2026-05-02 09:04 515K
20260502T06Z_MSC_RDPS_SpecificHumidity_IsbL-0450_RLatLon0.09_PT081H.grib2 2026-05-02 09:04 564K
20260502T06Z_MSC_RDPS_SpecificHumidity_IsbL-0500_RLatLon0.09_PT081H.grib2 2026-05-02 09:04 496K
20260502T06Z_MSC_RDPS_SpecificHumidity_IsbL-0550_RLatLon0.09_PT081H.grib2 2026-05-02 09:04 567K
20260502T06Z_MSC_RDPS_SpecificHumidity_IsbL-0600_RLatLon0.09_PT081H.grib2 2026-05-02 09:04 618K
20260502T06Z_MSC_RDPS_SpecificHumidity_IsbL-0650_RLatLon0.09_PT081H.grib2 2026-05-02 09:04 538K
20260502T06Z_MSC_RDPS_SpecificHumidity_IsbL-0700_RLatLon0.09_PT081H.grib2 2026-05-02 09:04 583K
20260502T06Z_MSC_RDPS_SpecificHumidity_IsbL-0750_RLatLon0.09_PT081H.grib2 2026-05-02 09:04 641K
20260502T06Z_MSC_RDPS_SpecificHumidity_IsbL-0800_RLatLon0.09_PT081H.grib2 2026-05-02 09:04 728K
20260502T06Z_MSC_RDPS_SpecificHumidity_IsbL-0850_RLatLon0.09_PT081H.grib2 2026-05-02 09:04 814K
20260502T06Z_MSC_RDPS_SpecificHumidity_IsbL-0875_RLatLon0.09_PT081H.grib2 2026-05-02 09:04 840K
20260502T06Z_MSC_RDPS_SpecificHumidity_IsbL-0900_RLatLon0.09_PT081H.grib2 2026-05-02 09:04 851K
20260502T06Z_MSC_RDPS_SpecificHumidity_IsbL-0925_RLatLon0.09_PT081H.grib2 2026-05-02 09:04 851K
20260502T06Z_MSC_RDPS_SpecificHumidity_IsbL-0950_RLatLon0.09_PT081H.grib2 2026-05-02 09:04 853K
20260502T06Z_MSC_RDPS_SpecificHumidity_IsbL-0970_RLatLon0.09_PT081H.grib2 2026-05-02 09:04 709K
20260502T06Z_MSC_RDPS_SpecificHumidity_IsbL-0985_RLatLon0.09_PT081H.grib2 2026-05-02 09:04 705K
20260502T06Z_MSC_RDPS_SpecificHumidity_IsbL-1000_RLatLon0.09_PT081H.grib2 2026-05-02 09:04 699K
20260502T06Z_MSC_RDPS_SpecificHumidity_IsbL-1015_RLatLon0.09_PT081H.grib2 2026-05-02 09:04 692K
20260502T06Z_MSC_RDPS_SpecificHumidity_Sfc_RLatLon0.09_PT081H.grib2 2026-05-02 09:04 317K
20260502T06Z_MSC_RDPS_StormRelativeHelicity_EtaL-10000_RLatLon0.09_PT081H.grib2 2026-05-02 09:04 1.1M
20260502T06Z_MSC_RDPS_StormSeverityIndex_EtaL-10000_RLatLon0.09_PT081H.grib2 2026-05-02 09:04 1.1M
20260502T06Z_MSC_RDPS_Thickness_IsbL-0850to0700_RLatLon0.09_PT081H.grib2 2026-05-02 09:04 179K
20260502T06Z_MSC_RDPS_Thickness_IsbL-1000to0500_RLatLon0.09_PT081H.grib2 2026-05-02 09:04 202K
20260502T06Z_MSC_RDPS_Thickness_IsbL-1000to0850_RLatLon0.09_PT081H.grib2 2026-05-02 09:04 265K
20260502T06Z_MSC_RDPS_TotalCloudCover_Sfc_RLatLon0.09_PT081H.grib2 2026-05-02 09:04 658K
20260502T06Z_MSC_RDPS_TotalTotalsIndex_Sfc_RLatLon0.09_PT081H.grib2 2026-05-02 09:04 2.4M
20260502T06Z_MSC_RDPS_UVIndex-ClearSky_Sfc_RLatLon0.09_PT081H.grib2 2026-05-02 09:04 182K
20260502T06Z_MSC_RDPS_UVIndex_Sfc_RLatLon0.09_PT081H.grib2 2026-05-02 09:04 436K
20260502T06Z_MSC_RDPS_UpwardLongwaveRadiationFlux_NTAtm_RLatLon0.09_PT081H.grib2 2026-05-02 09:04 486K
20260502T06Z_MSC_RDPS_UpwardShortwaveRadiationFlux_NTAtm_RLatLon0.09_PT081H.grib2 2026-05-02 09:04 479K
20260502T06Z_MSC_RDPS_VerticalVelocity_IsbL-0250_RLatLon0.09_PT081H.grib2 2026-05-02 09:04 558K
20260502T06Z_MSC_RDPS_VerticalVelocity_IsbL-0500_RLatLon0.09_PT081H.grib2 2026-05-02 09:04 690K
20260502T06Z_MSC_RDPS_VerticalVelocity_IsbL-0700_RLatLon0.09_PT081H.grib2 2026-05-02 09:04 603K
20260502T06Z_MSC_RDPS_VerticalVelocity_IsbL-0850_RLatLon0.09_PT081H.grib2 2026-05-02 09:04 710K
20260502T06Z_MSC_RDPS_VerticalWindShear_EtaL-6500_RLatLon0.09_PT081H.grib2 2026-05-02 09:04 1.2M
20260502T06Z_MSC_RDPS_WindChill_Sfc_RLatLon0.09_PT081H.grib2 2026-05-02 09:04 1.2M
20260502T06Z_MSC_RDPS_WindDir_AGL-10m_RLatLon0.09_PT081H.grib2 2026-05-02 09:04 963K
20260502T06Z_MSC_RDPS_WindDir_AGL-120m_RLatLon0.09_PT081H.grib2 2026-05-02 09:04 604K
20260502T06Z_MSC_RDPS_WindDir_AGL-40m_RLatLon0.09_PT081H.grib2 2026-05-02 09:04 628K
20260502T06Z_MSC_RDPS_WindDir_AGL-80m_RLatLon0.09_PT081H.grib2 2026-05-02 09:04 614K
20260502T06Z_MSC_RDPS_WindDir_IsbL-0001_RLatLon0.09_PT081H.grib2 2026-05-02 09:04 321K
20260502T06Z_MSC_RDPS_WindDir_IsbL-0005_RLatLon0.09_PT081H.grib2 2026-05-02 09:04 390K
20260502T06Z_MSC_RDPS_WindDir_IsbL-0010_RLatLon0.09_PT081H.grib2 2026-05-02 09:04 406K
20260502T06Z_MSC_RDPS_WindDir_IsbL-0020_RLatLon0.09_PT081H.grib2 2026-05-02 09:04 419K
20260502T06Z_MSC_RDPS_WindDir_IsbL-0030_RLatLon0.09_PT081H.grib2 2026-05-02 09:04 433K
20260502T06Z_MSC_RDPS_WindDir_IsbL-0050_RLatLon0.09_PT081H.grib2 2026-05-02 09:04 424K
20260502T06Z_MSC_RDPS_WindDir_IsbL-0100_RLatLon0.09_PT081H.grib2 2026-05-02 09:04 418K
20260502T06Z_MSC_RDPS_WindDir_IsbL-0150_RLatLon0.09_PT081H.grib2 2026-05-02 09:04 404K
20260502T06Z_MSC_RDPS_WindDir_IsbL-0175_RLatLon0.09_PT081H.grib2 2026-05-02 09:04 423K
20260502T06Z_MSC_RDPS_WindDir_IsbL-0200_RLatLon0.09_PT081H.grib2 2026-05-02 09:04 440K
20260502T06Z_MSC_RDPS_WindDir_IsbL-0225_RLatLon0.09_PT081H.grib2 2026-05-02 09:04 446K
20260502T06Z_MSC_RDPS_WindDir_IsbL-0250_RLatLon0.09_PT081H.grib2 2026-05-02 09:04 447K
20260502T06Z_MSC_RDPS_WindDir_IsbL-0275_RLatLon0.09_PT081H.grib2 2026-05-02 09:04 469K
20260502T06Z_MSC_RDPS_WindDir_IsbL-0300_RLatLon0.09_PT081H.grib2 2026-05-02 09:04 470K
20260502T06Z_MSC_RDPS_WindDir_IsbL-0350_RLatLon0.09_PT081H.grib2 2026-05-02 09:04 490K
20260502T06Z_MSC_RDPS_WindDir_IsbL-0400_RLatLon0.09_PT081H.grib2 2026-05-02 09:04 509K
20260502T06Z_MSC_RDPS_WindDir_IsbL-0450_RLatLon0.09_PT081H.grib2 2026-05-02 09:04 528K
20260502T06Z_MSC_RDPS_WindDir_IsbL-0500_RLatLon0.09_PT081H.grib2 2026-05-02 09:04 540K
20260502T06Z_MSC_RDPS_WindDir_IsbL-0550_RLatLon0.09_PT081H.grib2 2026-05-02 09:04 550K
20260502T06Z_MSC_RDPS_WindDir_IsbL-0600_RLatLon0.09_PT081H.grib2 2026-05-02 09:04 577K
20260502T06Z_MSC_RDPS_WindDir_IsbL-0650_RLatLon0.09_PT081H.grib2 2026-05-02 09:04 614K
20260502T06Z_MSC_RDPS_WindDir_IsbL-0700_RLatLon0.09_PT081H.grib2 2026-05-02 09:04 658K
20260502T06Z_MSC_RDPS_WindDir_IsbL-0750_RLatLon0.09_PT081H.grib2 2026-05-02 09:04 704K
20260502T06Z_MSC_RDPS_WindDir_IsbL-0800_RLatLon0.09_PT081H.grib2 2026-05-02 09:04 775K
20260502T06Z_MSC_RDPS_WindDir_IsbL-0850_RLatLon0.09_PT081H.grib2 2026-05-02 09:04 863K
20260502T06Z_MSC_RDPS_WindDir_IsbL-0875_RLatLon0.09_PT081H.grib2 2026-05-02 09:04 895K
20260502T06Z_MSC_RDPS_WindDir_IsbL-0900_RLatLon0.09_PT081H.grib2 2026-05-02 09:04 910K
20260502T06Z_MSC_RDPS_WindDir_IsbL-0925_RLatLon0.09_PT081H.grib2 2026-05-02 09:04 913K
20260502T06Z_MSC_RDPS_WindDir_IsbL-0950_RLatLon0.09_PT081H.grib2 2026-05-02 09:04 907K
20260502T06Z_MSC_RDPS_WindDir_IsbL-0970_RLatLon0.09_PT081H.grib2 2026-05-02 09:04 912K
20260502T06Z_MSC_RDPS_WindDir_IsbL-0985_RLatLon0.09_PT081H.grib2 2026-05-02 09:04 921K
20260502T06Z_MSC_RDPS_WindDir_IsbL-1000_RLatLon0.09_PT081H.grib2 2026-05-02 09:04 935K
20260502T06Z_MSC_RDPS_WindDir_IsbL-1015_RLatLon0.09_PT081H.grib2 2026-05-02 09:04 953K
20260502T06Z_MSC_RDPS_WindGust-Max_AGL-10m_RLatLon0.09_PT081H.grib2 2026-05-02 09:04 957K
20260502T06Z_MSC_RDPS_WindGust-Min_AGL-10m_RLatLon0.09_PT081H.grib2 2026-05-02 09:04 1.0M
20260502T06Z_MSC_RDPS_WindGust_AGL-10m_RLatLon0.09_PT081H.grib2 2026-05-02 09:04 1.0M
20260502T06Z_MSC_RDPS_WindSpeed_AGL-10m_RLatLon0.09_PT081H.grib2 2026-05-02 09:04 859K
20260502T06Z_MSC_RDPS_WindSpeed_AGL-120m_RLatLon0.09_PT081H.grib2 2026-05-02 09:04 561K
20260502T06Z_MSC_RDPS_WindSpeed_AGL-40m_RLatLon0.09_PT081H.grib2 2026-05-02 09:04 554K
20260502T06Z_MSC_RDPS_WindSpeed_AGL-80m_RLatLon0.09_PT081H.grib2 2026-05-02 09:04 551K
20260502T06Z_MSC_RDPS_WindSpeed_IsbL-0001_RLatLon0.09_PT081H.grib2 2026-05-02 09:04 338K
20260502T06Z_MSC_RDPS_WindSpeed_IsbL-0005_RLatLon0.09_PT081H.grib2 2026-05-02 09:04 297K
20260502T06Z_MSC_RDPS_WindSpeed_IsbL-0010_RLatLon0.09_PT081H.grib2 2026-05-02 09:04 370K
20260502T06Z_MSC_RDPS_WindSpeed_IsbL-0020_RLatLon0.09_PT081H.grib2 2026-05-02 09:04 424K
20260502T06Z_MSC_RDPS_WindSpeed_IsbL-0030_RLatLon0.09_PT081H.grib2 2026-05-02 09:04 323K
20260502T06Z_MSC_RDPS_WindSpeed_IsbL-0050_RLatLon0.09_PT081H.grib2 2026-05-02 09:04 351K
20260502T06Z_MSC_RDPS_WindSpeed_IsbL-0100_RLatLon0.09_PT081H.grib2 2026-05-02 09:04 478K
20260502T06Z_MSC_RDPS_WindSpeed_IsbL-0150_RLatLon0.09_PT081H.grib2 2026-05-02 09:04 381K
20260502T06Z_MSC_RDPS_WindSpeed_IsbL-0175_RLatLon0.09_PT081H.grib2 2026-05-02 09:04 408K
20260502T06Z_MSC_RDPS_WindSpeed_IsbL-0200_RLatLon0.09_PT081H.grib2 2026-05-02 09:04 440K
20260502T06Z_MSC_RDPS_WindSpeed_IsbL-0225_RLatLon0.09_PT081H.grib2 2026-05-02 09:04 444K
20260502T06Z_MSC_RDPS_WindSpeed_IsbL-0250_RLatLon0.09_PT081H.grib2 2026-05-02 09:04 445K
20260502T06Z_MSC_RDPS_WindSpeed_IsbL-0275_RLatLon0.09_PT081H.grib2 2026-05-02 09:04 462K
20260502T06Z_MSC_RDPS_WindSpeed_IsbL-0300_RLatLon0.09_PT081H.grib2 2026-05-02 09:04 463K
20260502T06Z_MSC_RDPS_WindSpeed_IsbL-0350_RLatLon0.09_PT081H.grib2 2026-05-02 09:04 477K
20260502T06Z_MSC_RDPS_WindSpeed_IsbL-0400_RLatLon0.09_PT081H.grib2 2026-05-02 09:04 479K
20260502T06Z_MSC_RDPS_WindSpeed_IsbL-0450_RLatLon0.09_PT081H.grib2 2026-05-02 09:04 461K
20260502T06Z_MSC_RDPS_WindSpeed_IsbL-0500_RLatLon0.09_PT081H.grib2 2026-05-02 09:04 463K
20260502T06Z_MSC_RDPS_WindSpeed_IsbL-0550_RLatLon0.09_PT081H.grib2 2026-05-02 09:04 464K
20260502T06Z_MSC_RDPS_WindSpeed_IsbL-0600_RLatLon0.09_PT081H.grib2 2026-05-02 09:04 591K
20260502T06Z_MSC_RDPS_WindSpeed_IsbL-0650_RLatLon0.09_PT081H.grib2 2026-05-02 09:04 612K
20260502T06Z_MSC_RDPS_WindSpeed_IsbL-0700_RLatLon0.09_PT081H.grib2 2026-05-02 09:04 633K
20260502T06Z_MSC_RDPS_WindSpeed_IsbL-0750_RLatLon0.09_PT081H.grib2 2026-05-02 09:04 708K
20260502T06Z_MSC_RDPS_WindSpeed_IsbL-0800_RLatLon0.09_PT081H.grib2 2026-05-02 09:04 764K
20260502T06Z_MSC_RDPS_WindSpeed_IsbL-0850_RLatLon0.09_PT081H.grib2 2026-05-02 09:04 837K
20260502T06Z_MSC_RDPS_WindSpeed_IsbL-0875_RLatLon0.09_PT081H.grib2 2026-05-02 09:04 817K
20260502T06Z_MSC_RDPS_WindSpeed_IsbL-0900_RLatLon0.09_PT081H.grib2 2026-05-02 09:04 829K
20260502T06Z_MSC_RDPS_WindSpeed_IsbL-0925_RLatLon0.09_PT081H.grib2 2026-05-02 09:04 836K
20260502T06Z_MSC_RDPS_WindSpeed_IsbL-0950_RLatLon0.09_PT081H.grib2 2026-05-02 09:04 834K
20260502T06Z_MSC_RDPS_WindSpeed_IsbL-0970_RLatLon0.09_PT081H.grib2 2026-05-02 09:04 877K
20260502T06Z_MSC_RDPS_WindSpeed_IsbL-0985_RLatLon0.09_PT081H.grib2 2026-05-02 09:04 872K
20260502T06Z_MSC_RDPS_WindSpeed_IsbL-1000_RLatLon0.09_PT081H.grib2 2026-05-02 09:04 869K
20260502T06Z_MSC_RDPS_WindSpeed_IsbL-1015_RLatLon0.09_PT081H.grib2 2026-05-02 09:04 858K
20260502T06Z_MSC_RDPS_WindU_AGL-10m_RLatLon0.09_PT081H.grib2 2026-05-02 09:04 441K
20260502T06Z_MSC_RDPS_WindU_AGL-120m_RLatLon0.09_PT081H.grib2 2026-05-02 09:04 426K
20260502T06Z_MSC_RDPS_WindU_AGL-40m_RLatLon0.09_PT081H.grib2 2026-05-02 09:04 546K
20260502T06Z_MSC_RDPS_WindU_AGL-80m_RLatLon0.09_PT081H.grib2 2026-05-02 09:04 545K
20260502T06Z_MSC_RDPS_WindU_IsbL-0001_RLatLon0.09_PT081H.grib2 2026-05-02 09:04 247K
20260502T06Z_MSC_RDPS_WindU_IsbL-0005_RLatLon0.09_PT081H.grib2 2026-05-02 09:04 286K
20260502T06Z_MSC_RDPS_WindU_IsbL-0010_RLatLon0.09_PT081H.grib2 2026-05-02 09:04 299K
20260502T06Z_MSC_RDPS_WindU_IsbL-0020_RLatLon0.09_PT081H.grib2 2026-05-02 09:04 315K
20260502T06Z_MSC_RDPS_WindU_IsbL-0030_RLatLon0.09_PT081H.grib2 2026-05-02 09:04 315K
20260502T06Z_MSC_RDPS_WindU_IsbL-0050_RLatLon0.09_PT081H.grib2 2026-05-02 09:04 380K
20260502T06Z_MSC_RDPS_WindU_IsbL-0100_RLatLon0.09_PT081H.grib2 2026-05-02 09:04 335K
20260502T06Z_MSC_RDPS_WindU_IsbL-0150_RLatLon0.09_PT081H.grib2 2026-05-02 09:04 396K
20260502T06Z_MSC_RDPS_WindU_IsbL-0175_RLatLon0.09_PT081H.grib2 2026-05-02 09:04 420K
20260502T06Z_MSC_RDPS_WindU_IsbL-0200_RLatLon0.09_PT081H.grib2 2026-05-02 09:04 335K
20260502T06Z_MSC_RDPS_WindU_IsbL-0225_RLatLon0.09_PT081H.grib2 2026-05-02 09:04 337K
20260502T06Z_MSC_RDPS_WindU_IsbL-0250_RLatLon0.09_PT081H.grib2 2026-05-02 09:04 337K
20260502T06Z_MSC_RDPS_WindU_IsbL-0275_RLatLon0.09_PT081H.grib2 2026-05-02 09:04 351K
20260502T06Z_MSC_RDPS_WindU_IsbL-0300_RLatLon0.09_PT081H.grib2 2026-05-02 09:04 349K
20260502T06Z_MSC_RDPS_WindU_IsbL-0350_RLatLon0.09_PT081H.grib2 2026-05-02 09:04 362K
20260502T06Z_MSC_RDPS_WindU_IsbL-0400_RLatLon0.09_PT081H.grib2 2026-05-02 09:04 364K
20260502T06Z_MSC_RDPS_WindU_IsbL-0450_RLatLon0.09_PT081H.grib2 2026-05-02 09:04 363K
20260502T06Z_MSC_RDPS_WindU_IsbL-0500_RLatLon0.09_PT081H.grib2 2026-05-02 09:04 468K
20260502T06Z_MSC_RDPS_WindU_IsbL-0550_RLatLon0.09_PT081H.grib2 2026-05-02 09:04 470K
20260502T06Z_MSC_RDPS_WindU_IsbL-0600_RLatLon0.09_PT081H.grib2 2026-05-02 09:04 479K
20260502T06Z_MSC_RDPS_WindU_IsbL-0650_RLatLon0.09_PT081H.grib2 2026-05-02 09:04 497K
20260502T06Z_MSC_RDPS_WindU_IsbL-0700_RLatLon0.09_PT081H.grib2 2026-05-02 09:04 517K
20260502T06Z_MSC_RDPS_WindU_IsbL-0750_RLatLon0.09_PT081H.grib2 2026-05-02 09:04 543K
20260502T06Z_MSC_RDPS_WindU_IsbL-0800_RLatLon0.09_PT081H.grib2 2026-05-02 09:04 578K
20260502T06Z_MSC_RDPS_WindU_IsbL-0850_RLatLon0.09_PT081H.grib2 2026-05-02 09:04 650K
20260502T06Z_MSC_RDPS_WindU_IsbL-0875_RLatLon0.09_PT081H.grib2 2026-05-02 09:04 671K
20260502T06Z_MSC_RDPS_WindU_IsbL-0900_RLatLon0.09_PT081H.grib2 2026-05-02 09:04 678K
20260502T06Z_MSC_RDPS_WindU_IsbL-0925_RLatLon0.09_PT081H.grib2 2026-05-02 09:04 681K
20260502T06Z_MSC_RDPS_WindU_IsbL-0950_RLatLon0.09_PT081H.grib2 2026-05-02 09:04 670K
20260502T06Z_MSC_RDPS_WindU_IsbL-0970_RLatLon0.09_PT081H.grib2 2026-05-02 09:04 665K
20260502T06Z_MSC_RDPS_WindU_IsbL-0985_RLatLon0.09_PT081H.grib2 2026-05-02 09:04 660K
20260502T06Z_MSC_RDPS_WindU_IsbL-1000_RLatLon0.09_PT081H.grib2 2026-05-02 09:04 798K
20260502T06Z_MSC_RDPS_WindU_IsbL-1015_RLatLon0.09_PT081H.grib2 2026-05-02 09:04 794K
20260502T06Z_MSC_RDPS_WindV_AGL-10m_RLatLon0.09_PT081H.grib2 2026-05-02 09:04 442K
20260502T06Z_MSC_RDPS_WindV_AGL-120m_RLatLon0.09_PT081H.grib2 2026-05-02 09:04 425K
20260502T06Z_MSC_RDPS_WindV_AGL-40m_RLatLon0.09_PT081H.grib2 2026-05-02 09:04 546K
20260502T06Z_MSC_RDPS_WindV_AGL-80m_RLatLon0.09_PT081H.grib2 2026-05-02 09:04 426K
20260502T06Z_MSC_RDPS_WindV_IsbL-0001_RLatLon0.09_PT081H.grib2 2026-05-02 09:04 251K
20260502T06Z_MSC_RDPS_WindV_IsbL-0005_RLatLon0.09_PT081H.grib2 2026-05-02 09:04 290K
20260502T06Z_MSC_RDPS_WindV_IsbL-0010_RLatLon0.09_PT081H.grib2 2026-05-02 09:04 302K
20260502T06Z_MSC_RDPS_WindV_IsbL-0020_RLatLon0.09_PT081H.grib2 2026-05-02 09:04 319K
20260502T06Z_MSC_RDPS_WindV_IsbL-0030_RLatLon0.09_PT081H.grib2 2026-05-02 09:04 355K
20260502T06Z_MSC_RDPS_WindV_IsbL-0050_RLatLon0.09_PT081H.grib2 2026-05-02 09:04 346K
20260502T06Z_MSC_RDPS_WindV_IsbL-0100_RLatLon0.09_PT081H.grib2 2026-05-02 09:04 334K
20260502T06Z_MSC_RDPS_WindV_IsbL-0150_RLatLon0.09_PT081H.grib2 2026-05-02 09:04 394K
20260502T06Z_MSC_RDPS_WindV_IsbL-0175_RLatLon0.09_PT081H.grib2 2026-05-02 09:04 324K
20260502T06Z_MSC_RDPS_WindV_IsbL-0200_RLatLon0.09_PT081H.grib2 2026-05-02 09:04 334K
20260502T06Z_MSC_RDPS_WindV_IsbL-0225_RLatLon0.09_PT081H.grib2 2026-05-02 09:04 337K
20260502T06Z_MSC_RDPS_WindV_IsbL-0250_RLatLon0.09_PT081H.grib2 2026-05-02 09:04 363K
20260502T06Z_MSC_RDPS_WindV_IsbL-0275_RLatLon0.09_PT081H.grib2 2026-05-02 09:04 375K
20260502T06Z_MSC_RDPS_WindV_IsbL-0300_RLatLon0.09_PT081H.grib2 2026-05-02 09:04 350K
20260502T06Z_MSC_RDPS_WindV_IsbL-0350_RLatLon0.09_PT081H.grib2 2026-05-02 09:04 360K
20260502T06Z_MSC_RDPS_WindV_IsbL-0400_RLatLon0.09_PT081H.grib2 2026-05-02 09:04 362K
20260502T06Z_MSC_RDPS_WindV_IsbL-0450_RLatLon0.09_PT081H.grib2 2026-05-02 09:04 363K
20260502T06Z_MSC_RDPS_WindV_IsbL-0500_RLatLon0.09_PT081H.grib2 2026-05-02 09:04 466K
20260502T06Z_MSC_RDPS_WindV_IsbL-0550_RLatLon0.09_PT081H.grib2 2026-05-02 09:04 468K
20260502T06Z_MSC_RDPS_WindV_IsbL-0600_RLatLon0.09_PT081H.grib2 2026-05-02 09:04 476K
20260502T06Z_MSC_RDPS_WindV_IsbL-0650_RLatLon0.09_PT081H.grib2 2026-05-02 09:04 478K
20260502T06Z_MSC_RDPS_WindV_IsbL-0700_RLatLon0.09_PT081H.grib2 2026-05-02 09:04 498K
20260502T06Z_MSC_RDPS_WindV_IsbL-0750_RLatLon0.09_PT081H.grib2 2026-05-02 09:04 524K
20260502T06Z_MSC_RDPS_WindV_IsbL-0800_RLatLon0.09_PT081H.grib2 2026-05-02 09:04 583K
20260502T06Z_MSC_RDPS_WindV_IsbL-0850_RLatLon0.09_PT081H.grib2 2026-05-02 09:04 635K
20260502T06Z_MSC_RDPS_WindV_IsbL-0875_RLatLon0.09_PT081H.grib2 2026-05-02 09:04 659K
20260502T06Z_MSC_RDPS_WindV_IsbL-0900_RLatLon0.09_PT081H.grib2 2026-05-02 09:04 669K
20260502T06Z_MSC_RDPS_WindV_IsbL-0925_RLatLon0.09_PT081H.grib2 2026-05-02 09:04 673K
20260502T06Z_MSC_RDPS_WindV_IsbL-0950_RLatLon0.09_PT081H.grib2 2026-05-02 09:04 668K
20260502T06Z_MSC_RDPS_WindV_IsbL-0970_RLatLon0.09_PT081H.grib2 2026-05-02 09:04 665K
20260502T06Z_MSC_RDPS_WindV_IsbL-0985_RLatLon0.09_PT081H.grib2 2026-05-02 09:04 662K
20260502T06Z_MSC_RDPS_WindV_IsbL-1000_RLatLon0.09_PT081H.grib2 2026-05-02 09:04 799K
20260502T06Z_MSC_RDPS_WindV_IsbL-1015_RLatLon0.09_PT081H.grib2 2026-05-02 09:04 795K